Time,TemperatureF,DewpointF,PressureIn,WindDirection,WindDirectionDegrees,WindSpeedMPH,WindSpeedGustMPH,Humidity,HourlyPrecipIn,Conditions,Clouds,dailyrainin,SoftwareType,DateUTC
2013-03-24 00:02:00,13.0,13.0,-100.00,NW,325,3.0,4.0,97,0.00,,,-99.99,,2013-03-24 06:02:00,
2013-03-24 00:12:00,13.0,13.0,-100.00,NW,325,3.0,4.0,97,0.00,,,-99.99,,2013-03-24 06:12:00,
2013-03-24 00:22:00,13.0,12.0,-100.00,NW,326,4.0,6.0,97,0.00,,,-99.99,,2013-03-24 06:22:00,
2013-03-24 00:32:00,13.0,12.0,-100.00,NW,326,4.0,6.0,97,0.00,,,-99.99,,2013-03-24 06:32:00,
2013-03-24 00:42:00,13.0,13.0,-100.00,NNW,328,3.0,4.0,97,0.04,,,-99.99,,2013-03-24 06:42:00,
2013-03-24 00:52:00,13.0,13.0,-100.00,NNW,328,3.0,4.0,97,0.04,,,-99.99,,2013-03-24 06:52:00,
2013-03-24 01:02:00,13.0,13.0,-100.00,NNW,328,3.0,4.0,97,0.04,,,-99.99,,2013-03-24 07:02:00,
2013-03-24 01:11:00,10.0,9.0,-100.00,WNW,292,1.0,2.0,95,0.00,,,-99.99,,2013-03-24 07:11:00,
2013-03-24 01:22:00,10.0,9.0,-100.00,WNW,292,1.0,2.0,95,0.00,,,-99.99,,2013-03-24 07:22:00,
2013-03-24 01:32:00,10.0,9.0,-100.00,WNW,292,1.0,2.0,95,0.00,,,-99.99,,2013-03-24 07:32:00,
2013-03-24 01:42:00,10.0,9.0,-100.00,WNW,296,2.0,3.0,95,0.00,,,-99.99,,2013-03-24 07:42:00,
2013-03-24 01:52:00,9.0,8.0,-100.00,NW,311,2.0,3.0,94,0.00,,,-99.99,,2013-03-24 07:52:00,
2013-03-24 02:02:00,9.0,8.0,-100.00,NW,311,2.0,3.0,94,0.00,,,-99.99,,2013-03-24 08:02:00,
2013-03-24 02:12:00,8.0,6.0,-100.00,NNW,336,2.0,2.0,94,0.00,,,-99.99,,2013-03-24 08:12:00,
2013-03-24 02:22:00,8.0,6.0,-100.00,NNW,336,2.0,2.0,94,0.00,,,-99.99,,2013-03-24 08:22:00,
2013-03-24 02:32:00,8.0,6.0,-100.00,NNW,336,2.0,2.0,94,0.00,,,-99.99,,2013-03-24 08:32:00,
2013-03-24 02:41:00,7.0,6.0,-100.00,WNW,291,1.0,2.0,94,0.00,,,-99.99,,2013-03-24 08:41:00,
2013-03-24 02:52:00,10.0,8.0,-100.00,WNW,296,1.0,2.0,95,0.00,,,-99.99,,2013-03-24 08:52:00,
2013-03-24 03:02:00,10.0,8.0,-100.00,WNW,296,1.0,2.0,95,0.00,,,-99.99,,2013-03-24 09:02:00,
2013-03-24 03:12:00,10.0,8.0,-100.00,WNW,296,1.0,2.0,95,0.00,,,-99.99,,2013-03-24 09:12:00,
2013-03-24 03:22:00,11.0,9.0,-100.00,NW,308,1.0,1.0,95,0.00,,,-99.99,,2013-03-24 09:22:00,
2013-03-24 03:32:00,11.0,9.0,-100.00,NW,308,1.0,1.0,95,0.00,,,-99.99,,2013-03-24 09:32:00,
2013-03-24 03:42:00,11.0,9.0,-100.00,NNW,344,0.0,0.0,95,0.00,,,-99.99,,2013-03-24 09:42:00,
2013-03-24 03:52:00,10.0,8.0,-100.00,WNW,285,2.0,3.0,94,0.00,,,-99.99,,2013-03-24 09:52:00,
2013-03-24 04:02:00,10.0,8.0,-100.00,WNW,285,2.0,3.0,94,0.00,,,-99.99,,2013-03-24 10:02:00,
2013-03-24 04:12:00,6.0,4.0,-100.00,NW,308,0.0,1.0,92,0.00,,,-99.99,,2013-03-24 10:12:00,
2013-03-24 04:22:00,4.0,2.0,-100.00,NNW,329,0.0,1.0,92,0.00,,,-99.99,,2013-03-24 10:22:00,
2013-03-24 04:32:00,4.0,2.0,-100.00,NNW,329,0.0,1.0,92,0.00,,,-99.99,,2013-03-24 10:32:00,
2013-03-24 04:42:00,3.0,1.0,-100.00,NNW,339,1.0,1.0,92,0.00,,,-99.99,,2013-03-24 10:42:00,
2013-03-24 04:52:00,2.0,0.0,-100.00,NW,306,1.0,2.0,90,0.00,,,-99.99,,2013-03-24 10:52:00,
2013-03-24 05:02:00,2.0,0.0,-100.00,NW,306,1.0,2.0,90,0.00,,,-99.99,,2013-03-24 11:02:00,
2013-03-24 05:12:00,1.0,-2.0,-100.00,WNW,288,1.0,2.0,90,0.00,,,-99.99,,2013-03-24 11:12:00,
2013-03-24 05:22:00,1.0,-2.0,-100.00,WNW,288,1.0,2.0,90,0.00,,,-99.99,,2013-03-24 11:22:00,
2013-03-24 05:32:00,1.0,-2.0,-100.00,WNW,288,1.0,2.0,90,0.00,,,-99.99,,2013-03-24 11:32:00,
2013-03-24 05:42:00,0.0,-2.0,-100.00,NW,305,2.0,2.0,90,0.00,,,-99.99,,2013-03-24 11:42:00,
2013-03-24 05:52:00,0.0,-2.0,-100.00,NW,305,2.0,2.0,90,0.00,,,-99.99,,2013-03-24 11:52:00,
2013-03-24 06:02:00,0.0,-2.0,-100.00,NW,305,2.0,2.0,90,0.00,,,-99.99,,2013-03-24 12:02:00,
2013-03-24 06:12:00,0.0,-2.0,-100.00,WNW,287,1.0,2.0,91,0.00,,,-99.99,,2013-03-24 12:12:00,
2013-03-24 06:22:00,1.0,-1.0,-100.00,WNW,292,3.0,3.0,92,0.00,,,-99.99,,2013-03-24 12:22:00,
2013-03-24 06:32:00,1.0,-1.0,-100.00,WNW,292,3.0,3.0,92,0.00,,,-99.99,,2013-03-24 12:32:00,
2013-03-24 06:42:00,6.0,5.0,-100.00,NW,308,4.0,5.0,94,0.04,,,-99.99,,2013-03-24 12:42:00,
2013-03-24 06:52:00,6.0,5.0,-100.00,NW,308,4.0,5.0,94,0.04,,,-99.99,,2013-03-24 12:52:00,
2013-03-24 07:02:00,6.0,5.0,-100.00,NW,308,4.0,5.0,94,0.04,,,-99.99,,2013-03-24 13:02:00,
2013-03-24 07:12:00,7.0,6.0,-100.00,NW,308,3.0,4.0,94,0.00,,,-99.99,,2013-03-24 13:12:00,
2013-03-24 07:22:00,6.0,4.0,-100.00,WNW,289,3.0,4.0,92,0.00,,,-99.99,,2013-03-24 13:22:00,
2013-03-24 07:32:00,6.0,4.0,-100.00,WNW,289,3.0,4.0,92,0.00,,,-99.99,,2013-03-24 13:32:00,
2013-03-24 07:42:00,4.0,2.0,-100.00,WNW,295,3.0,3.0,91,0.00,,,-99.99,,2013-03-24 13:42:00,
2013-03-24 07:52:00,4.0,3.0,-100.00,WNW,298,3.0,4.0,93,0.00,,,-99.99,,2013-03-24 13:52:00,
2013-03-24 08:02:00,4.0,3.0,-100.00,WNW,298,3.0,4.0,93,0.00,,,-99.99,,2013-03-24 14:02:00,
2013-03-24 08:12:00,6.0,4.0,-100.00,WNW,302,3.0,5.0,94,0.00,,,-99.99,,2013-03-24 14:12:00,
2013-03-24 08:22:00,6.0,4.0,-100.00,WNW,302,3.0,5.0,94,0.00,,,-99.99,,2013-03-24 14:22:00,
2013-03-24 08:32:00,6.0,4.0,-100.00,WNW,302,3.0,5.0,94,0.00,,,-99.99,,2013-03-24 14:32:00,
2013-03-24 08:42:00,7.0,5.0,-100.00,NW,308,3.0,4.0,94,0.00,,,-99.99,,2013-03-24 14:42:00,
2013-03-24 08:52:00,7.0,6.0,-100.00,WNW,302,3.0,4.0,94,0.00,,,-99.99,,2013-03-24 14:52:00,
2013-03-24 09:02:00,7.0,6.0,-100.00,WNW,302,3.0,4.0,94,0.00,,,-99.99,,2013-03-24 15:02:00,
2013-03-24 09:12:00,9.0,8.0,-100.00,NNW,332,3.0,4.0,94,0.00,,,-99.99,,2013-03-24 15:12:00,
2013-03-24 09:22:00,9.0,8.0,-100.00,NNW,332,3.0,4.0,94,0.00,,,-99.99,,2013-03-24 15:22:00,
2013-03-24 09:32:00,9.0,8.0,-100.00,NNW,332,3.0,4.0,94,0.00,,,-99.99,,2013-03-24 15:32:00,
2013-03-24 09:43:00,12.0,11.0,-100.00,NNW,336,3.0,3.0,95,0.00,,,-99.99,,2013-03-24 15:43:00,
2013-03-24 09:53:00,12.0,11.0,-100.00,NNW,336,3.0,3.0,95,0.00,,,-99.99,,2013-03-24 15:53:00,
2013-03-24 10:02:00,16.0,15.0,-100.00,NW,319,2.0,2.0,97,0.00,,,-99.99,,2013-03-24 16:02:00,
2013-03-24 10:12:00,16.0,15.0,-100.00,NW,319,2.0,2.0,97,0.00,,,-99.99,,2013-03-24 16:12:00,
2013-03-24 10:22:00,19.0,18.0,-100.00,NW,316,0.0,1.0,95,0.00,,,-99.99,,2013-03-24 16:22:00,
2013-03-24 10:32:00,19.0,18.0,-100.00,NW,316,0.0,1.0,95,0.00,,,-99.99,,2013-03-24 16:32:00,
2013-03-24 10:42:00,17.0,13.0,-100.00,ESE,116,3.0,4.0,82,0.00,,,-99.99,,2013-03-24 16:42:00,
2013-03-24 10:52:00,17.0,13.0,-100.00,ESE,116,3.0,4.0,82,0.00,,,-99.99,,2013-03-24 16:52:00,
2013-03-24 11:02:00,17.0,13.0,-100.00,ESE,116,3.0,4.0,82,0.00,,,-99.99,,2013-03-24 17:02:00,
2013-03-24 11:12:00,15.0,12.0,-100.00,ESE,113,4.0,6.0,87,0.00,,,-99.99,,2013-03-24 17:12:00,
2013-03-24 11:22:00,15.0,12.0,-100.00,ESE,113,4.0,6.0,87,0.00,,,-99.99,,2013-03-24 17:22:00,
2013-03-24 11:32:00,15.0,12.0,-100.00,ESE,113,4.0,6.0,87,0.00,,,-99.99,,2013-03-24 17:32:00,
2013-03-24 11:42:00,15.0,12.0,-100.00,ESE,113,4.0,6.0,87,0.00,,,-99.99,,2013-03-24 17:42:00,
2013-03-24 11:53:00,20.0,11.0,-100.00,East,90,4.0,7.0,68,0.00,,,-99.99,,2013-03-24 17:53:00,
2013-03-24 12:02:00,20.0,11.0,-100.00,East,90,4.0,7.0,68,0.00,,,-99.99,,2013-03-24 18:02:00,
2013-03-24 12:12:00,20.0,9.0,-100.00,SSE,165,2.0,5.0,62,0.00,,,-99.99,,2013-03-24 18:12:00,
2013-03-24 12:22:00,20.0,9.0,-100.00,SSE,165,2.0,5.0,62,0.00,,,-99.99,,2013-03-24 18:22:00,
2013-03-24 12:32:00,20.0,9.0,-100.00,SSE,165,2.0,5.0,62,0.00,,,-99.99,,2013-03-24 18:32:00,
2013-03-24 12:42:00,22.0,12.0,-100.00,South,178,4.0,6.0,66,0.00,,,-99.99,,2013-03-24 18:42:00,
2013-03-24 12:52:00,22.0,12.0,-100.00,South,178,4.0,6.0,66,0.00,,,-99.99,,2013-03-24 18:52:00,
2013-03-24 13:02:00,22.0,12.0,-100.00,South,178,4.0,6.0,66,0.00,,,-99.99,,2013-03-24 19:02:00,
2013-03-24 13:12:00,25.0,6.0,-100.00,SSE,150,3.0,6.0,44,0.00,,,-99.99,,2013-03-24 19:12:00,
2013-03-24 13:22:00,25.0,6.0,-100.00,SSE,150,3.0,6.0,44,0.00,,,-99.99,,2013-03-24 19:22:00,
2013-03-24 13:32:00,25.0,6.0,-100.00,SSE,150,3.0,6.0,44,0.00,,,-99.99,,2013-03-24 19:32:00,
2013-03-24 13:42:00,26.0,6.0,-100.00,SSE,164,3.0,4.0,42,0.00,,,-99.99,,2013-03-24 19:42:00,
2013-03-24 13:53:00,26.0,6.0,-100.00,SSE,164,3.0,4.0,42,0.00,,,-99.99,,2013-03-24 19:53:00,
2013-03-24 14:02:00,26.0,6.0,-100.00,SSE,164,3.0,4.0,42,0.00,,,-99.99,,2013-03-24 20:02:00,
2013-03-24 14:12:00,26.0,6.0,-100.00,SSE,164,3.0,4.0,42,0.00,,,-99.99,,2013-03-24 20:12:00,
2013-03-24 14:22:00,30.0,5.0,-100.00,South,179,1.0,2.0,35,0.00,,,-99.99,,2013-03-24 20:22:00,
2013-03-24 14:30:00,26.0,3.0,-100.00,SW,216,4.0,6.0,37,0.00,,,-99.99,,2013-03-24 20:30:00,
2013-03-24 14:32:00,30.0,5.0,-100.00,South,179,1.0,2.0,35,0.00,,,-99.99,,2013-03-24 20:32:00,
2013-03-24 14:42:00,26.0,-1.0,-100.00,SSE,148,5.0,9.0,30,0.00,,,-99.99,,2013-03-24 20:42:00,
2013-03-24 14:53:00,26.0,3.0,-100.00,SW,216,4.0,6.0,37,0.00,,,-99.99,,2013-03-24 20:53:00,
2013-03-24 15:02:00,26.0,3.0,-100.00,SW,216,4.0,6.0,37,0.00,,,-99.99,,2013-03-24 21:02:00,
2013-03-24 15:11:00,26.0,3.0,-100.00,SW,216,4.0,6.0,37,0.00,,,-99.99,,2013-03-24 21:11:00,
2013-03-24 15:22:00,26.0,3.0,-100.00,SW,216,4.0,6.0,37,0.00,,,-99.99,,2013-03-24 21:22:00,
2013-03-24 15:43:00,26.0,-1.0,-100.00,North,6,4.0,6.0,30,0.00,,,-99.99,,2013-03-24 21:43:00,
2013-03-24 15:53:00,26.0,-1.0,-100.00,North,6,4.0,6.0,30,0.00,,,-99.99,,2013-03-24 21:53:00,
2013-03-24 16:02:00,26.0,-1.0,-100.00,North,6,4.0,6.0,30,0.00,,,-99.99,,2013-03-24 22:02:00,
2013-03-24 16:12:00,26.0,-1.0,-100.00,North,6,4.0,6.0,30,0.00,,,-99.99,,2013-03-24 22:12:00,
2013-03-24 16:43:00,27.0,2.0,-100.00,SE,134,6.0,9.0,34,0.00,,,-99.99,,2013-03-24 22:43:00,
2013-03-24 16:52:00,27.0,1.0,-100.00,ESE,103,5.0,9.0,32,0.00,,,-99.99,,2013-03-24 22:52:00,
2013-03-24 17:02:00,27.0,1.0,-100.00,ESE,103,5.0,9.0,32,0.00,,,-99.99,,2013-03-24 23:02:00,
2013-03-24 17:12:00,27.0,1.0,-100.00,ESE,103,5.0,9.0,32,0.00,,,-99.99,,2013-03-24 23:12:00,
2013-03-24 17:42:00,28.0,3.0,-100.00,South,184,3.0,5.0,33,0.00,,,-99.99,,2013-03-24 23:42:00,
2013-03-24 17:52:00,26.0,2.0,-100.00,SE,126,2.0,4.0,34,0.00,,,-99.99,,2013-03-24 23:52:00,
2013-03-24 18:00:00,27.0,4.0,-100.00,SSE,151,4.0,6.0,37,0.00,,,-99.99,,2013-03-25 00:00:00,
2013-03-24 18:02:00,26.0,2.0,-100.00,SE,126,2.0,4.0,34,0.00,,,-99.99,,2013-03-25 00:02:00,
2013-03-24 18:12:00,27.0,4.0,-100.00,SSE,164,3.0,5.0,37,0.00,,,-99.99,,2013-03-25 00:12:00,
2013-03-24 18:22:00,27.0,4.0,-100.00,SSE,164,3.0,5.0,37,0.00,,,-99.99,,2013-03-25 00:22:00,
2013-03-24 18:32:00,27.0,4.0,-100.00,SSE,164,3.0,5.0,37,0.00,,,-99.99,,2013-03-25 00:32:00,
2013-03-24 18:42:00,27.0,4.0,-100.00,SSE,151,4.0,6.0,37,0.00,,,-99.99,,2013-03-25 00:42:00,
2013-03-24 18:52:00,27.0,4.0,-100.00,SSE,151,4.0,6.0,37,0.00,,,-99.99,,2013-03-25 00:52:00,
2013-03-24 19:12:00,28.0,6.0,-100.00,SSW,193,2.0,4.0,39,0.00,,,-99.99,,2013-03-25 01:12:00,
2013-03-24 19:22:00,21.0,7.0,-100.00,South,174,0.0,1.0,54,0.00,,,-99.99,,2013-03-25 01:22:00,
2013-03-24 19:32:00,21.0,7.0,-100.00,South,174,0.0,1.0,54,0.00,,,-99.99,,2013-03-25 01:32:00,
2013-03-24 19:42:00,21.0,7.0,-100.00,South,174,0.0,1.0,54,0.00,,,-99.99,,2013-03-25 01:42:00,
2013-03-24 19:52:00,19.0,7.0,-100.00,SSE,150,1.0,2.0,58,0.00,,,-99.99,,2013-03-25 01:52:00,
2013-03-24 20:01:00,19.0,7.0,-100.00,SSE,150,1.0,2.0,58,0.00,,,-99.99,,2013-03-25 02:01:00,
2013-03-24 20:12:00,19.0,7.0,-100.00,SSE,150,1.0,2.0,58,0.00,,,-99.99,,2013-03-25 02:12:00,
2013-03-24 20:22:00,18.0,7.0,-100.00,South,186,0.0,0.0,60,0.00,,,-99.99,,2013-03-25 02:22:00,
2013-03-24 20:32:00,18.0,7.0,-100.00,South,186,0.0,0.0,60,0.00,,,-99.99,,2013-03-25 02:32:00,
2013-03-24 20:42:00,17.0,8.0,-100.00,South,186,0.0,0.0,67,0.00,,,-99.99,,2013-03-25 02:42:00,
2013-03-24 20:52:00,16.0,6.0,-100.00,South,186,0.0,0.0,67,0.00,,,-99.99,,2013-03-25 02:52:00,
2013-03-24 21:02:00,16.0,6.0,-100.00,South,186,0.0,0.0,67,0.00,,,-99.99,,2013-03-25 03:02:00,
2013-03-24 21:12:00,15.0,7.0,-100.00,SE,136,2.0,3.0,69,0.00,,,-99.99,,2013-03-25 03:12:00,
2013-03-24 21:22:00,18.0,5.0,-100.00,SE,144,2.0,4.0,56,0.00,,,-99.99,,2013-03-25 03:22:00,
2013-03-24 21:33:00,18.0,5.0,-100.00,SE,144,2.0,4.0,56,0.00,,,-99.99,,2013-03-25 03:33:00,
2013-03-24 21:43:00,18.0,5.0,-100.00,SE,144,2.0,4.0,56,0.00,,,-99.99,,2013-03-25 03:43:00,
2013-03-24 21:53:00,17.0,4.0,-100.00,SE,127,1.0,3.0,58,0.00,,,-99.99,,2013-03-25 03:53:00,
2013-03-24 22:02:00,17.0,4.0,-100.00,SE,127,1.0,3.0,58,0.00,,,-99.99,,2013-03-25 04:02:00,
2013-03-24 22:12:00,14.0,4.0,-100.00,SSE,161,1.0,2.0,66,0.00,,,-99.99,,2013-03-25 04:12:00,
2013-03-24 22:22:00,12.0,5.0,-100.00,South,169,0.0,1.0,74,0.00,,,-99.99,,2013-03-25 04:22:00,
2013-03-24 22:32:00,12.0,5.0,-100.00,South,169,0.0,1.0,74,0.00,,,-99.99,,2013-03-25 04:32:00,
2013-03-24 22:42:00,12.0,7.0,-100.00,South,184,0.0,1.0,81,0.00,,,-99.99,,2013-03-25 04:42:00,
2013-03-24 22:52:00,12.0,7.0,-100.00,South,184,0.0,1.0,81,0.00,,,-99.99,,2013-03-25 04:52:00,
2013-03-24 23:02:00,12.0,7.0,-100.00,South,184,0.0,1.0,81,0.00,,,-99.99,,2013-03-25 05:02:00,
2013-03-24 23:12:00,11.0,6.0,-100.00,South,169,0.0,1.0,79,0.00,,,-99.99,,2013-03-25 05:12:00,
2013-03-24 23:22:00,12.0,7.0,-100.00,South,169,0.0,0.0,82,0.00,,,-99.99,,2013-03-25 05:22:00,
2013-03-24 23:32:00,12.0,7.0,-100.00,South,169,0.0,0.0,82,0.00,,,-99.99,,2013-03-25 05:32:00,
2013-03-24 23:42:00,11.0,7.0,-100.00,South,169,0.0,1.0,81,0.00,,,-99.99,,2013-03-25 05:42:00,
2013-03-24 23:52:00,10.0,5.0,-100.00,SSW,206,0.0,1.0,81,0.00,,,-99.99,,2013-03-25 05:52:00,